Date String (YYYY-MM-DD hh:mm:ss) UTC,Instrument flags,Ambient pressure (hPa),Sample flow (lpm),Bypass flow (lpm),Sample temperature (°C),Ambient temperature (°C),ASC tube jacket temperature (°C),LED temperature (°C),Box temperature (°C),Sample RH (%),Span deviation,Mass concentration (μg/m³),Mass concentration (μg/m³),Mass concentration (μg/m³)
DateTimeUTC,F1_M11,P_M11,Q1_M11,Q2_M11,T1_M11,T2_M11,T3_M11,T4_M11,T5_M11,U1_M11,ZSPAN_M11,X0_M11,X2_M11,X1_M11
2021-10-13 07:00:00,,0812.2,5.01,0.00,23.4,22.5,00.0,32.9,25.0,20.7,0000.0,0002.64,0001.44,0001.06
2021-10-13 07:01:00,,0812.1,5.00,0.00,23.4,22.5,00.0,32.9,25.0,20.7,0000.0,0002.68,0001.45,0001.06
2021-10-13 07:02:00,,0812.1,5.00,0.00,23.4,22.5,00.0,32.9,25.0,20.7,0000.0,0002.61,0001.43,0001.05
2021-10-13 07:03:00,,0812.1,4.99,0.00,23.3,22.4,00.0,32.8,25.0,20.7,0000.0,0002.62,0001.43,0001.06
2021-10-13 07:04:00,,0811.9,5.00,0.00,23.3,22.4,00.0,32.8,24.9,20.7,0000.0,0002.61,0001.42,0001.06
2021-10-13 07:05:00,,0811.9,4.99,0.00,23.3,22.4,00.0,32.8,24.9,20.6,0000.0,0002.59,0001.40,0001.06
2021-10-13 07:06:00,,0811.8,5.00,0.00,23.3,22.4,00.0,32.7,24.9,20.6,0000.0,0002.63,0001.42,0001.08
2021-10-13 07:07:00,,0811.8,5.00,0.00,23.3,22.4,00.0,32.7,24.9,20.4,0000.0,0002.75,0001.45,0001.07
2021-10-13 07:08:00,,0811.7,5.00,0.00,23.2,22.4,00.0,32.7,24.9,20.3,0000.0,0002.59,0001.42,0001.04
2021-10-13 07:09:00,,0811.8,5.01,0.00,23.2,22.4,00.0,32.6,24.9,20.3,0000.0,0002.31,0001.35,0001.01
2021-10-13 07:10:00,,0811.8,5.01,0.00,23.2,22.4,00.0,32.6,24.9,20.2,0000.0,0002.30,0001.34,0000.98
2021-10-13 07:11:00,,0811.8,4.99,0.00,23.2,22.4,00.0,32.6,24.9,20.1,0000.0,0002.20,0001.28,0000.95
2021-10-13 07:12:00,,0811.7,4.99,0.00,23.2,22.4,00.0,32.6,24.9,20.0,0000.0,0002.19,0001.21,0000.91
2021-10-13 07:13:00,,0811.7,5.01,0.00,23.2,22.5,00.0,32.6,24.9,20.0,0000.0,0002.08,0001.17,0000.87
2021-10-13 07:14:00,,0811.7,4.99,0.00,23.2,22.4,00.0,32.5,24.9,20.0,0000.0,0002.20,0001.13,0000.84
2021-10-13 07:15:00,,0811.8,5.00,0.00,23.2,22.4,00.0,32.5,24.9,20.0,0000.0,0002.32,0001.08,0000.81
2021-10-13 07:16:00,,0811.7,5.00,0.00,23.2,22.4,00.0,32.5,24.9,20.0,0000.0,0002.27,0001.05,0000.79
2021-10-13 07:17:00,,0811.6,4.99,0.00,23.1,22.4,00.0,32.5,24.8,20.0,0000.0,0002.17,0001.00,0000.77
2021-10-13 07:18:00,,0811.6,5.00,0.00,23.1,22.3,00.0,32.5,24.8,20.0,0000.0,0002.32,0001.02,0000.75
2021-10-13 07:19:00,,0811.7,4.99,0.00,23.1,22.3,00.0,32.4,24.8,20.1,0000.0,0002.34,0001.03,0000.76
2021-10-13 07:20:00,,0811.7,5.00,0.00,23.0,22.2,00.0,32.4,24.7,20.1,0000.0,0002.44,0001.07,0000.77
2021-10-13 07:21:00,,0811.7,4.99,0.00,23.0,22.3,00.0,32.4,24.7,20.1,0000.0,0002.52,0001.09,0000.78
2021-10-13 07:22:00,,0811.6,5.00,0.00,23.0,22.2,00.0,32.4,24.7,20.1,0000.0,0002.70,0001.15,0000.80
2021-10-13 07:23:00,,0811.7,5.00,0.00,23.0,22.2,00.0,32.4,24.7,20.2,0000.0,0002.67,0001.20,0000.82
2021-10-13 07:24:00,,0811.6,5.00,0.00,22.9,22.1,00.0,32.3,24.6,20.2,0000.0,0002.78,0001.25,0000.84
2021-10-13 07:25:00,,0811.7,5.01,0.00,22.9,22.1,00.0,32.3,24.6,20.3,0000.0,0002.59,0001.29,0000.86
2021-10-13 07:26:00,,0811.7,4.99,0.00,22.9,22.0,00.0,32.3,24.5,20.3,0000.0,0002.39,0001.30,0000.86
2021-10-13 07:27:00,,0811.7,5.00,0.00,22.8,22.0,00.0,32.2,24.5,20.4,0000.0,0002.44,0001.32,0000.87
2021-10-13 07:28:00,,0811.7,5.00,0.00,22.8,21.9,00.0,32.2,24.4,20.5,0000.0,0002.98,0001.33,0000.88
2021-10-13 07:29:00,,0811.6,5.00,0.00,22.8,21.9,00.0,32.2,24.4,20.5,0000.0,0002.86,0001.29,0000.90
2021-10-13 07:30:00,,0811.5,5.00,0.00,22.7,21.9,00.0,32.1,24.4,20.6,0000.0,0002.82,0001.28,0000.90
2021-10-13 07:31:00,,0811.4,5.00,0.00,22.7,21.9,00.0,32.1,24.4,20.6,0000.0,0002.86,0001.29,0000.90
2021-10-13 07:32:00,,0811.6,5.00,0.00,22.7,21.9,00.0,32.1,24.4,20.6,0000.0,0002.76,0001.28,0000.90
2021-10-13 07:33:00,,0811.6,4.99,0.00,22.8,22.0,00.0,32.1,24.4,20.6,0000.0,0002.69,0001.27,0000.91
2021-10-13 07:34:00,,0811.6,5.00,0.00,22.7,22.0,00.0,32.1,24.4,20.6,0000.0,0002.69,0001.27,0000.92
2021-10-13 07:35:00,,0811.6,5.00,0.00,22.7,22.0,00.0,32.1,24.4,20.6,0000.0,0002.65,0001.27,0000.94
2021-10-13 07:36:00,,0811.6,4.99,0.00,22.7,21.9,00.0,32.0,24.3,20.6,0000.0,0002.60,0001.26,0000.95
2021-10-13 07:37:00,,0811.6,5.00,0.00,22.7,21.9,00.0,32.0,24.3,20.7,0000.0,0002.72,0001.31,0000.99
2021-10-13 07:38:00,,0811.6,5.00,0.00,22.7,21.9,00.0,32.0,24.3,20.7,0000.0,0002.78,0001.35,0001.01
2021-10-13 07:39:00,,0811.6,5.00,0.00,22.7,21.9,00.0,32.0,24.3,20.7,0000.0,0002.43,0001.42,0001.07
2021-10-13 07:40:00,,0811.6,5.00,0.00,22.6,21.9,00.0,32.0,24.3,20.8,0000.0,0002.23,0001.44,0001.11
2021-10-13 07:41:00,,0811.6,5.00,0.00,22.6,21.9,00.0,31.9,24.4,20.8,0000.0,0002.35,0001.49,0001.14
2021-10-13 07:42:00,,0811.5,5.00,0.00,22.6,22.0,00.0,31.9,24.4,20.8,0000.0,0003.16,0001.58,0001.19
2021-10-13 07:43:00,,0811.6,4.99,0.00,22.7,22.0,00.0,31.9,24.4,20.8,0000.0,0003.31,0001.67,0001.27
2021-10-13 07:44:00,,0811.6,5.01,0.00,22.7,22.0,00.0,31.9,24.4,20.8,0000.0,0003.43,0001.77,0001.35
2021-10-13 07:45:00,,0811.6,4.99,0.00,22.7,22.1,00.0,31.9,24.5,20.8,0000.0,0003.54,0001.87,0001.42
2021-10-13 07:46:00,,0811.6,5.00,0.00,22.7,22.1,00.0,31.9,24.5,20.8,0000.0,0003.74,0001.97,0001.49
2021-10-13 07:47:00,,0811.5,5.00,0.00,22.7,22.1,00.0,31.9,24.5,20.8,0000.0,0003.93,0002.08,0001.56
2021-10-13 07:48:00,,0811.6,5.00,0.00,22.7,22.1,00.0,31.9,24.5,20.8,0000.0,0004.09,0002.16,0001.63
2021-10-13 07:49:00,,0811.7,4.99,0.00,22.7,22.0,00.0,31.9,24.4,20.8,0000.0,0004.29,0002.22,0001.68
2021-10-13 07:50:00,,0811.6,5.01,0.00,22.7,22.0,00.0,31.9,24.3,20.9,0000.0,0004.53,0002.29,0001.72
2021-10-13 07:51:00,,0811.5,4.99,0.00,22.6,21.9,00.0,31.9,24.3,20.9,0000.0,0005.02,0002.37,0001.77
2021-10-13 07:52:00,,0811.5,5.00,0.00,22.6,21.9,00.0,31.9,24.3,20.9,0000.0,0005.36,0002.44,0001.83
2021-10-13 07:53:00,,0811.6,5.02,0.00,22.6,21.9,00.0,31.9,24.4,20.9,0000.0,0005.01,0002.44,0001.89
2021-10-13 07:54:00,,0811.5,5.00,0.00,22.6,22.0,00.0,31.9,24.4,20.9,0000.0,0005.25,0002.54,0001.93
2021-10-13 07:55:00,,0811.6,5.02,0.00,22.7,22.0,00.0,31.9,24.5,20.9,0000.0,0005.39,0002.59,0001.97
2021-10-13 07:56:00,,0811.8,4.99,0.00,22.7,22.1,00.0,31.9,24.4,20.9,0000.0,0005.49,0002.63,0002.02
2021-10-13 07:57:00,,0811.9,5.01,0.00,22.7,22.1,00.0,31.9,24.4,20.9,0000.0,0005.51,0002.65,0002.05
2021-10-13 07:58:00,,0812.0,5.01,0.00,22.7,22.1,00.0,31.9,24.4,21.0,0000.0,0005.69,0002.72,0002.10
2021-10-13 07:59:00,,0812.0,5.00,0.00,22.7,22.1,00.0,31.9,24.4,20.9,0000.0,0005.75,0002.78,0002.14
